This demonstration page uses our WeatherBlox Daily Observations layout. Learn more.

Hourly Observations for May 23, 2015

Temp ( °F °C ) Dew Point ( °F °C ) Humidity (%) Winds ( mph kmh ) Pressure ( in mb ) Visibility ( mi km ) Precip ( " mm )
12:15 am 00:15 Cloudy with Mist and Fog 53 11.5 51 10.7 95 95 SE 17 28 30.12 1020 5 8.0467 0 0
12:35 am 00:35 Cloudy with Mist and Fog 52 11.3 51 10.6 96 96 SSE 14 22 30.12 1020 3 4.82802 0 0
12:55 am 00:55 Cloudy with Mist and Fog 53 11.5 51 10.7 95 95 SSE 15 24 30.12 1020 4 6.43736 0 0
1:15 am 01:15 Cloudy with Mist and Fog 53 11.5 51 10.7 95 95 SSE 14 22 30.12 1020 5 8.0467 0 0
1:35 am 01:35 Cloudy with Mist and Fog 53 11.5 51 10.8 96 96 SSE 13 20 30.12 1020 4 6.43736 0 0
1:55 am 01:55 Cloudy with Mist and Fog 53 11.5 51 10.8 96 96 SSE 13 20 30.12 1020 4 6.43736 0 0
2:15 am 02:15 Cloudy 53 11.5 51 10.8 96 96 SSE 16 26 30.12 1020 7 11.26538 0 0
2:35 am 02:35 Cloudy with Mist and Fog 53 11.5 51 10.8 96 96 SSE 12 19 30.12 1020 5 8.0467 0 0
2:55 am 02:55 Cloudy with Mist and Fog 53 11.5 51 10.8 96 96 SSE 12 19 30.12 1020 4 6.43736 0 0
3:15 am 03:15 Cloudy with Mist and Fog 53 11.5 51 10.8 96 96 SSE 14 22 30.12 1020 4 6.43736 0 0
3:35 am 03:35 Cloudy with Mist and Fog 53 11.5 52 10.9 96 96 SSE 12 19 30.12 1020 1.25 2.011675 0 0
3:55 am 03:55 Cloudy with Mist and Fog 53 11.5 51 10.8 96 96 SE 10 17 30.09 1019 1 1.60934 0 0
4:15 am 04:15 Cloudy with Mist and Fog 53 11.5 51 10.8 96 96 SE 12 19 30.09 1019 0.75 1.207005 0 0
4:35 am 04:35 Cloudy with Fog 52 11.3 51 10.7 96 96 SE 10 17 30.09 1019 0.5 0.80467 0 0
4:55 am 04:55 Cloudy with Fog 53 11.4 51 10.8 96 96 SSE 8 13 30.12 1020 0.5 0.80467 0 0
5:15 am 05:15 Cloudy with Fog 53 11.5 51 10.8 96 96 S 8 13 30.12 1020 0.5 0.80467 0 0
5:35 am 05:35 Cloudy with Mist and Fog 53 11.5 52 11 97 97 SSE 8 13 30.12 1020 1 1.60934 0 0
5:55 am 05:55 Cloudy with Mist and Fog 53 11.5 52 11 97 97 S 6 9 30.12 1020 2.5 4.02335 0 0
6:15 am 06:15 Cloudy 53 11.5 52 11 97 97 SSE 15 24 30.09 1019 7 11.26538 0 0
6:35 am 06:35 Cloudy 53 11.5 52 11 97 97 SSE 15 24 30.09 1019 7 11.26538 0 0
6:55 am 06:55 Cloudy 53 11.5 52 10.9 96 96 SSE 16 26 30.09 1019 7 11.26538 0 0
7:15 am 07:15 Cloudy with Mist and Fog 53 11.4 52 10.9 97 97 SSE 14 22 30.06 1018 3 4.82802 0 0
7:35 am 07:35 Cloudy with Mist and Fog 52 11.3 51 10.7 96 96 SSE 18 30 30.09 1019 4 6.43736 0 0
7:55 am 07:55 Cloudy with Mist and Fog 53 11.4 51 10.8 96 96 SSE 17 28 30.09 1019 4 6.43736 0 0
8:15 am 08:15 Cloudy with Mist and Fog 53 11.5 52 11 97 97 SSE 17 28 30.12 1020 4 6.43736 0 0
8:35 am 08:35 Cloudy with Mist and Fog 53 11.7 52 11.1 96 96 SSE 13 20 30.09 1019 4 6.43736 0 0
8:55 am 08:55 Cloudy with Mist and Fog 53 11.7 52 11.1 96 96 SSE 13 20 30.09 1019 5 8.0467 0 0
9:15 am 09:15 Cloudy with Mist and Fog 53 11.7 52 11 96 96 SSE 14 22 30.12 1020 5 8.0467 0 0
9:35 am 09:35 Cloudy with Mist and Fog 53 11.9 52 11.2 96 96 SSE 12 19 30.12 1020 5 8.0467 0 0
9:55 am 09:55 Cloudy with Mist and Fog 54 12 52 11.2 95 95 SE 16 26 30.12 1020 5 8.0467 0 0
10:15 am 10:15 Cloudy with Mist and Fog 53 11.8 52 11 95 95 SE 14 22 30.12 1020 5 8.0467 0 0
10:35 am 10:35 Cloudy with Mist and Fog 53 11.7 52 11 96 96 SE 14 22 30.09 1019 2 3.21868 0 0
10:55 am 10:55 Cloudy with Mist and Fog 53 11.9 52 11.2 96 96 SE 13 20 30.12 1020 4 6.43736 0 0
11:15 am 11:15 Cloudy with Mist and Fog 54 12 52 11.3 96 96 SE 13 20 30.12 1020 4 6.43736 0 0
11:35 am 11:35 Cloudy with Mist and Fog 54 12.2 53 11.5 96 96 SSE 12 19 30.12 1020 5 8.0467 0 0
11:55 am 11:55 Cloudy with Mist and Fog 54 12.2 53 11.5 96 96 SSE 10 17 30.12 1020 2 3.21868 0 0
12:15 pm 12:15 Cloudy with Mist and Fog 54 12.3 53 11.6 96 96 SSE 13 20 30.12 1020 4 6.43736 0 0
12:35 pm 12:35 Cloudy with Light Rain 55 12.8 54 12 95 95 SE 10 17 30.09 1019 10 16.0934 0 0
12:55 pm 12:55 Cloudy 55 12.9 53 11.8 93 93 SE 9 15 30.09 1019 10 16.0934 0 0
1:15 pm 13:15 Cloudy 56 13.2 54 12.2 94 94 SSE 13 20 30.06 1018 10 16.0934 0 0
1:35 pm 13:35 Mostly Cloudy 58 14.2 55 12.8 91 91 S 9 15 30.03 1017 10 16.0934 0 0
1:55 pm 13:55 Cloudy with Light Rain 57 14 54 12.3 90 90 SE 14 22 30.03 1017 10 16.0934 0 0
2:15 pm 14:15 Cloudy with Light Drizzle 57 13.7 55 12.5 93 93 SE 15 24 30.03 1017 10 16.0934 0 0
2:35 pm 14:35 Cloudy with Light Rain 57 14 55 12.7 92 92 ESE 16 26 30 1016 10 16.0934 0 0
2:55 pm 14:55 Cloudy 57 14 55 12.5 91 91 ESE 14 22 30 1016 10 16.0934 0 0
3:15 pm 15:15 Cloudy 58 14.3 55 12.7 90 90 ESE 9 15 30 1016 10 16.0934 0 0
3:35 pm 15:35 Cloudy 58 14.3 55 12.7 90 90 E 9 15 30 1016 10 16.0934 0 0
3:55 pm 15:55 Mostly Cloudy 59 15 56 13.2 89 89 E 13 20 29.97 1015 10 16.0934 0 0
4:15 pm 16:15 Mostly Cloudy 59 15 56 13.2 89 89 ENE 13 20 29.97 1015 10 16.0934 0 0
4:35 pm 16:35 Cloudy 60 15.4 56 13.4 88 88 E 17 28 29.97 1015 10 16.0934 0 0
4:55 pm 16:55 Cloudy 60 15.3 56 13.2 87 87 E 16 26 29.97 1015 10 16.0934 0.01 0.254
5:15 pm 17:15 Cloudy 59 15.2 56 13.1 87 87 E 17 28 29.94 1014 10 16.0934 0 0
5:35 pm 17:35 Cloudy 60 15.5 56 13.3 87 87 E 20 31 29.91 1013 10 16.0934 0 0
5:55 pm 17:55 Cloudy 59 15.1 55 13 87 87 E 20 31 29.94 1014 10 16.0934 0 0
6:15 pm 18:15 Cloudy 59 15.1 55 13 87 87 E 16 26 29.94 1014 10 16.0934 0 0
6:35 pm 18:35 Cloudy 60 15.3 56 13.3 88 88 E 17 28 29.94 1014 10 16.0934 0 0
6:55 pm 18:55 Cloudy 59 15.1 56 13.2 89 89 E 17 28 29.94 1014 10 16.0934 0 0
7:15 pm 19:15 Cloudy 59 15.1 56 13.2 89 89 E 14 22 29.94 1014 10 16.0934 0 0
7:35 pm 19:35 Cloudy 59 15 56 13.3 90 90 E 16 26 29.94 1014 10 16.0934 0 0
7:55 pm 19:55 Cloudy 59 14.8 56 13.3 91 91 E 16 26 29.91 1013 10 16.0934 0 0
8:15 pm 20:15 Cloudy 58 14.6 56 13.1 91 91 E 14 22 29.94 1014 10 16.0934 0 0
8:35 pm 20:35 Cloudy with Mist and Fog 58 14.3 56 13.1 93 93 E 10 17 29.94 1014 5 8.0467 0 0
8:55 pm 20:55 Cloudy with Light Rain 57 14.1 56 13.1 94 94 E 13 20 29.97 1015 3 4.82802 0 0
9:15 pm 21:15 Cloudy with Light Rain 57 14 56 13.1 94 94 E 12 19 29.94 1014 3 4.82802 0 0
9:35 pm 21:35 Cloudy with Light Rain 57 14 56 13.1 94 94 E 10 17 29.94 1014 3 4.82802 0 0
9:55 pm 21:55 Cloudy with Light Rain 57 13.8 55 13 95 95 E 13 20 29.94 1014 3 4.82802 0.01 0.254
10:15 pm 22:15 Cloudy with Mist and Fog 57 13.8 56 13.1 96 96 E 13 20 29.94 1014 3 4.82802 0 0
10:35 pm 22:35 Cloudy 57 13.8 56 13.1 96 96 E 12 19 29.94 1014 7 11.26538 0 0
10:55 pm 22:55 Cloudy 57 14 56 13.1 94 94 E 9 15 29.94 1014 10 16.0934 0 0
11:15 pm 23:15 Cloudy with Mist and Fog 57 14 56 13.1 94 94 E 10 17 29.94 1014 5 8.0467 0 0
11:35 pm 23:35 Cloudy with Mist and Fog 57 14 56 13.1 94 94 ESE 13 20 29.94 1014 5 8.0467 0 0
11:55 pm 23:55 Cloudy with Mist and Fog 57 14 56 13.1 94 94 ESE 10 17 29.94 1014 5 8.0467 0 0

Powered by AerisWeather